Weather reports worldwide

Advertisment
Ploce, Croatia (14462): temperature & dewpoint: 17.10.2020 01:00:00 - 23.10.2020 01:00:00 (CEST)Ploce, Croatia (14462): wind speed: 17.10.2020 01:00:00 - 23.10.2020 01:00:00 (CEST)Ploce, Croatia (14462): wind direction: 17.10.2020 01:00:00 - 23.10.2020 01:00:00 (CEST)Ploce, Croatia (14462): reduced air pressure: 17.10.2020 01:00:00 - 23.10.2020 01:00:00 (CEST)Ploce, Croatia (14462): visibility: 17.10.2020 01:00:00 - 23.10.2020 01:00:00 (CEST)
Date & Time tt [°C] td [°C] ff [km/h] ff [kn] dd ppp [hPa] vv [km]
23.10.2020 01:00:00 - - - - - - -
23.10.2020 00:00:00 - - - - - - -
22.10.2020 23:00:00 10,2 8,7 0 0 N 1024,3 -
22.10.2020 22:00:00 11,4 9,3 0 0 N 1023,5 30
22.10.2020 21:00:00 11,8 9,8 0 0 N 1023,4 30
22.10.2020 20:00:00 12,8 9,7 0 0 N 1023,4 30
22.10.2020 19:00:00 13,6 9,5 4 2 N 1023,9 -
22.10.2020 18:00:00 16,1 9,6 0 0 N 1023,5 -
22.10.2020 17:00:00 19,1 8,2 4 2 SW 1023,6 -
22.10.2020 16:00:00 19,0 9,5 11 6 SSW 1023,4 -
22.10.2020 15:00:00 20,0 7,9 11 6 SSW 1023,4 30
22.10.2020 14:00:00 19,6 7,8 7 4 SSW 1024,2 30
22.10.2020 13:00:00 18,8 8,6 11 6 SE 1025,0 30
22.10.2020 12:00:00 16,8 9,5 7 4 SSE 1025,8 30
22.10.2020 11:00:00 14,2 8,5 7 4 SE 1025,9 30
22.10.2020 10:00:00 11,6 7,6 11 6 SSE 1025,9 30
22.10.2020 09:00:00 9,8 6,8 7 4 NNE 1025,9 30
22.10.2020 08:00:00 7,1 6,3 11 6 NNE 1025,3 30
22.10.2020 07:00:00 6,8 6,0 0 0 N 1025,6 -
22.10.2020 06:00:00 6,9 6,1 0 0 N 1025,8 -
22.10.2020 05:00:00 7,4 6,4 4 2 S 1025,6 -
22.10.2020 04:00:00 - - - - - - -
22.10.2020 03:00:00 - - - - - - -
22.10.2020 02:00:00 8,9 7,4 0 0 N 1025,6 -
22.10.2020 01:00:00 - - - - - - -
22.10.2020 00:00:00 - - - - - - -
21.10.2020 23:00:00 10,0 8,2 0 0 N 1025,0 -
21.10.2020 22:00:00 10,8 8,5 7 4 NNW 1024,8 30
21.10.2020 21:00:00 11,8 9,0 4 2 NNE 1024,2 30
21.10.2020 20:00:00 13,6 9,0 4 2 NNW 1024,0 30
21.10.2020 19:00:00 13,8 8,5 0 0 N 1024,5 -
21.10.2020 18:00:00 17,1 8,6 0 0 N 1024,6 -
21.10.2020 17:00:00 20,4 6,0 7 4 NNW 1024,7 -
21.10.2020 16:00:00 20,5 7,2 7 4 SW 1024,7 -
21.10.2020 15:00:00 21,4 7,5 7 4 S 1024,4 30
21.10.2020 14:00:00 21,0 7,2 11 6 SE 1024,8 30
21.10.2020 13:00:00 19,0 8,8 7 4 SSE 1025,5 30
21.10.2020 12:00:00 17,1 7,9 7 4 SSE 1026,0 30
21.10.2020 11:00:00 14,6 7,7 11 6 SSE 1026,2 30
21.10.2020 10:00:00 11,8 7,2 7 4 SSE 1026,5 30
21.10.2020 09:00:00 9,2 6,2 11 6 SSE 1026,3 30
21.10.2020 08:00:00 7,2 5,7 7 4 SSE 1025,9 30
21.10.2020 07:00:00 6,9 5,4 4 2 N 1026,0 -
21.10.2020 06:00:00 7,5 5,5 7 4 N 1025,9 -
21.10.2020 05:00:00 7,5 5,7 - - - 1025,8 -
21.10.2020 04:00:00 - - - - - - -
21.10.2020 03:00:00 - - - - - - -
21.10.2020 02:00:00 9,2 6,2 7 4 NNE 1025,6 -
21.10.2020 01:00:00 - - - - - - -
21.10.2020 00:00:00 - - - - - - -
20.10.2020 23:00:00 10,3 6,9 0 0 N 1026,3 -
20.10.2020 22:00:00 11,4 8,2 0 0 N 1025,4 30
20.10.2020 21:00:00 12,1 8,3 0 0 N 1024,7 30
20.10.2020 20:00:00 13,0 8,3 4 2 NNE 1024,3 30
20.10.2020 19:00:00 15,1 7,9 4 2 NNE 1024,3 -
20.10.2020 18:00:00 17,3 8,0 4 2 NNW 1024,2 -
20.10.2020 17:00:00 19,2 5,0 14 8 S 1024,0 -
20.10.2020 16:00:00 20,1 3,8 11 6 NNW 1024,1 -
20.10.2020 15:00:00 20,2 4,2 11 6 NNW 1024,0 30
20.10.2020 14:00:00 18,6 6,4 7 4 SSW 1024,4 30
20.10.2020 13:00:00 18,6 6,0 7 4 SSW 1025,1 30
20.10.2020 12:00:00 16,8 7,3 0 0 N 1025,3 30
20.10.2020 11:00:00 15,0 6,4 7 4 SE 1025,5 30
20.10.2020 10:00:00 12,4 6,3 7 4 SE 1025,5 30
20.10.2020 09:00:00 9,8 6,4 0 0 N 1025,2 30
20.10.2020 08:00:00 7,8 5,7 7 4 SSE 1024,8 30
20.10.2020 07:00:00 6,8 5,7 4 2 N 1024,8 -
20.10.2020 06:00:00 7,4 6,3 4 2 SSW 1024,8 -
20.10.2020 05:00:00 7,4 6,3 4 2 N 1024,6 -
20.10.2020 04:00:00 - - - - - - -
20.10.2020 03:00:00 - - - - - - -
20.10.2020 02:00:00 9,1 6,6 4 2 N 1024,6 -
20.10.2020 01:00:00 - - - - - - -
20.10.2020 00:00:00 - - - - - - -
19.10.2020 23:00:00 11,0 7,7 4 2 S 1024,1 -
19.10.2020 22:00:00 12,5 7,5 7 4 NW 1023,4 30
19.10.2020 21:00:00 13,8 8,2 7 4 NNE 1022,9 30
19.10.2020 20:00:00 14,5 7,3 4 2 NNW 1022,7 30
19.10.2020 19:00:00 - - - - - - -
19.10.2020 18:00:00 17,2 4,6 4 2 NNW 1023,1 -
19.10.2020 17:00:00 18,9 3,2 7 4 S 1022,9 -
19.10.2020 16:00:00 19,9 2,3 14 8 S 1022,8 -
19.10.2020 15:00:00 19,2 5,6 14 8 SSW 1022,6 30
19.10.2020 14:00:00 19,4 6,6 7 4 SSW 1023,1 30
19.10.2020 13:00:00 18,6 6,9 11 6 SSW 1023,8 30
19.10.2020 12:00:00 17,8 6,3 7 4 SSW 1024,2 30
19.10.2020 11:00:00 15,6 8,0 7 4 SSE 1024,3 30
19.10.2020 10:00:00 13,8 7,6 7 4 SSE 1024,2 30
19.10.2020 09:00:00 11,8 6,1 7 4 SSE 1023,8 30
19.10.2020 08:00:00 8,2 6,0 0 0 N 1023,5 30
19.10.2020 07:00:00 8,1 5,8 7 4 SSW 1023,5 -
19.10.2020 06:00:00 10,5 4,5 11 6 NNW 1023,4 -
19.10.2020 05:00:00 9,1 5,9 7 4 S 1023,3 -
19.10.2020 04:00:00 - - - - - - -
19.10.2020 03:00:00 - - - - - - -
19.10.2020 02:00:00 10,5 5,7 4 2 N 1023,3 -
19.10.2020 01:00:00 - - - - - - -
19.10.2020 00:00:00 - - - - - - -
18.10.2020 23:00:00 12,5 6,6 4 2 NNW 1022,1 -
18.10.2020 22:00:00 13,2 6,7 0 0 N 1021,1 30
18.10.2020 21:00:00 13,2 6,9 0 0 N 1020,7 30
18.10.2020 20:00:00 14,4 8,5 0 0 N 1020,0 30
18.10.2020 19:00:00 15,9 9,6 7 4 NNW 1020,1 -
18.10.2020 18:00:00 16,9 9,9 7 4 NNW 1019,5 -
18.10.2020 17:00:00 18,1 9,0 11 6 NNW 1019,2 -
18.10.2020 16:00:00 - - - - - - -
18.10.2020 15:00:00 19,1 7,4 18 10 W 1019,0 30
18.10.2020 14:00:00 18,0 8,2 18 10 SW 1019,3 30
18.10.2020 13:00:00 17,5 7,6 11 6 SSW 1019,8 30
18.10.2020 12:00:00 17,5 7,8 7 4 ESE 1019,8 30
18.10.2020 11:00:00 15,7 8,8 7 4 ESE 1019,8 30
18.10.2020 10:00:00 13,6 9,0 7 4 E 1019,8 30
18.10.2020 09:00:00 11,6 8,6 4 2 E 1019,7 30
18.10.2020 08:00:00 9,6 7,7 7 4 E 1018,8 30
18.10.2020 07:00:00 8,7 8,0 7 4 SSE 1018,8 -
18.10.2020 06:00:00 9,0 8,6 4 2 NNE 1018,7 -
18.10.2020 05:00:00 9,6 8,8 11 6 S 1018,5 -
18.10.2020 04:00:00 - - - - - - -
18.10.2020 03:00:00 - - - - - - -
18.10.2020 02:00:00 10,8 9,5 4 2 NNE 1018,1 -
18.10.2020 01:00:00 - - - - - - -
18.10.2020 00:00:00 - - - - - - -
17.10.2020 23:00:00 12,5 10,6 4 2 NE 1017,9 -
17.10.2020 22:00:00 13,2 10,1 7 4 SE 1017,0 30
17.10.2020 21:00:00 12,5 10,7 0 0 N 1016,5 30
17.10.2020 20:00:00 12,8 10,8 0 0 N 1016,4 30
17.10.2020 19:00:00 13,2 11,2 4 2 NNW 1016,3 -
17.10.2020 18:00:00 15,8 11,4 0 0 N 1015,6 -
17.10.2020 17:00:00 17,5 10,4 7 4 SW 1015,2 -
17.10.2020 16:00:00 17,5 10,4 7 4 SW 1015,1 -
17.10.2020 15:00:00 16,8 12,2 7 4 SSW 1014,6 30
17.10.2020 14:00:00 16,8 11,8 7 4 SSE 1014,6 20
17.10.2020 13:00:00 15,8 12,2 7 4 SSE 1014,9 20
17.10.2020 12:00:00 15,6 11,6 11 6 SE 1015,2 20
17.10.2020 11:00:00 12,8 11,5 4 2 NNE 1015,3 30
17.10.2020 10:00:00 12,2 11,1 4 2 NNE 1014,8 30
17.10.2020 09:00:00 11,4 10,5 7 4 SE 1014,4 30
17.10.2020 08:00:00 10,8 10,0 7 4 SSE 1013,8 30
17.10.2020 07:00:00 10,2 9,7 0 0 N 1013,9 -
17.10.2020 06:00:00 11,2 10,3 11 6 NNW 1013,7 -
17.10.2020 05:00:00 11,0 10,6 4 2 NNE 1013,7 -
17.10.2020 04:00:00 - - - - - - -
17.10.2020 03:00:00 - - - - - - -
17.10.2020 02:00:00 12,6 10,4 7 4 NW 1013,7 -
17.10.2020 01:00:00 - - - - - - -

tt = temperature
td = dewpoint
ff = wind speed
dd = wind direction
ppp = reduced air pressure
vv = visibility

Next stations